Year,Month,Day,Hour,Minute,Value (Times are PST for temperature in C)
2016,10,20,10,57,14.50
2016,10,20,10,58,14.50
2016,10,20,10,59,14.50
2016,10,20,11,00,14.50
2016,10,20,11,01,14.50
2016,10,20,11,02,14.60
2016,10,20,11,03,14.60
2016,10,20,11,04,14.60
2016,10,20,11,05,14.70
2016,10,20,11,06,14.80
2016,10,20,11,07,14.80
2016,10,20,11,08,14.80
2016,10,20,11,09,14.80
2016,10,20,11,10,14.80
2016,10,20,11,11,14.90
2016,10,20,11,12,14.90
2016,10,20,11,13,15.00
2016,10,20,11,14,15.00
2016,10,20,11,15,15.00
2016,10,20,11,16,15.00
2016,10,20,11,17,15.00
2016,10,20,11,18,15.10
2016,10,20,11,19,15.10
2016,10,20,11,20,15.10
2016,10,20,11,21,15.20
2016,10,20,11,22,15.20
2016,10,20,11,23,15.20
2016,10,20,11,24,15.20
2016,10,20,11,25,15.20
2016,10,20,11,26,15.20
2016,10,20,11,27,15.30
2016,10,20,11,28,15.30
2016,10,20,11,29,15.30
2016,10,20,11,30,15.30
2016,10,20,11,31,15.30
2016,10,20,11,32,15.30
2016,10,20,11,33,15.30
2016,10,20,11,34,15.30
2016,10,20,11,35,15.30
2016,10,20,11,36,15.30
2016,10,20,11,37,15.30
2016,10,20,11,38,15.30
2016,10,20,11,39,15.30
2016,10,20,11,40,15.30
2016,10,20,11,41,15.30
2016,10,20,11,42,15.30
2016,10,20,11,43,15.30
2016,10,20,11,44,15.30
2016,10,20,11,45,15.40
2016,10,20,11,46,15.40
2016,10,20,11,47,15.40
2016,10,20,11,48,15.50
2016,10,20,11,49,15.50
2016,10,20,11,50,15.50
2016,10,20,11,51,15.50
2016,10,20,11,52,15.60
2016,10,20,11,53,15.60
2016,10,20,11,54,15.50
2016,10,20,11,55,15.50
2016,10,20,11,56,15.50
2016,10,20,11,57,15.50
2016,10,20,11,58,15.50
2016,10,20,11,59,15.60
2016,10,20,12,00,15.60
2016,10,20,12,01,15.50
2016,10,20,12,02,15.50
2016,10,20,12,03,15.50
2016,10,20,12,04,15.50
2016,10,20,12,05,15.50
2016,10,20,12,06,15.50
2016,10,20,12,07,15.60
2016,10,20,12,08,15.60
2016,10,20,12,09,15.60
2016,10,20,12,10,15.60
2016,10,20,12,11,15.60
2016,10,20,12,12,15.70
2016,10,20,12,13,15.70
2016,10,20,12,14,15.70
2016,10,20,12,15,15.60
2016,10,20,12,16,15.60
2016,10,20,12,17,15.60
2016,10,20,12,18,15.60
2016,10,20,12,19,15.60
2016,10,20,12,20,15.60
2016,10,20,12,21,15.60
2016,10,20,12,22,15.60
2016,10,20,12,23,15.60
2016,10,20,12,24,15.60
2016,10,20,12,25,15.60
2016,10,20,12,26,15.70
2016,10,20,12,27,15.70
2016,10,20,12,28,15.70
2016,10,20,12,29,15.70
2016,10,20,12,30,15.70
2016,10,20,12,31,15.70
2016,10,20,12,32,15.70
2016,10,20,12,33,15.60
2016,10,20,12,34,15.60
2016,10,20,12,35,15.70
2016,10,20,12,36,15.70
2016,10,20,12,37,15.70
2016,10,20,12,38,15.70
2016,10,20,12,39,15.70
2016,10,20,12,40,15.70
2016,10,20,12,41,15.80
2016,10,20,12,42,15.80
2016,10,20,12,43,15.80
2016,10,20,12,44,15.80
2016,10,20,12,45,15.90
2016,10,20,12,46,15.90
2016,10,20,12,47,15.80
2016,10,20,12,48,15.80
2016,10,20,12,49,15.80
2016,10,20,12,50,15.80
2016,10,20,12,51,15.80
2016,10,20,12,52,15.70
2016,10,20,12,53,15.80
2016,10,20,12,54,15.80
2016,10,20,12,55,15.80
2016,10,20,12,56,15.80
2016,10,20,12,57,15.80
2016,10,20,12,58,15.80
2016,10,20,12,59,15.80
2016,10,20,13,00,15.80
2016,10,20,13,01,15.80
2016,10,20,13,02,15.80
2016,10,20,13,03,15.80
2016,10,20,13,04,15.90
2016,10,20,13,05,15.90
2016,10,20,13,06,16.00
2016,10,20,13,07,16.10
2016,10,20,13,08,16.10
2016,10,20,13,09,16.10
2016,10,20,13,10,16.10
2016,10,20,13,11,16.10
2016,10,20,13,12,16.00
2016,10,20,13,13,15.90
2016,10,20,13,14,15.90
2016,10,20,13,15,15.90
2016,10,20,13,16,15.80
2016,10,20,13,17,15.80
2016,10,20,13,18,15.80
2016,10,20,13,19,15.70
2016,10,20,13,20,15.60
2016,10,20,13,21,15.60
2016,10,20,13,22,15.60
2016,10,20,13,23,15.60
2016,10,20,13,24,15.60
2016,10,20,13,25,15.60
2016,10,20,13,26,15.50
2016,10,20,13,27,15.50
2016,10,20,13,28,15.50
2016,10,20,13,29,15.50
2016,10,20,13,30,15.40
2016,10,20,13,31,15.30
2016,10,20,13,32,15.30
2016,10,20,13,33,15.30
2016,10,20,13,34,15.30
2016,10,20,13,35,15.30
2016,10,20,13,36,15.30
2016,10,20,13,37,15.30
2016,10,20,13,38,15.30
2016,10,20,13,39,15.30
2016,10,20,13,40,15.30
2016,10,20,13,41,15.20
2016,10,20,13,42,15.10
2016,10,20,13,43,15.10
2016,10,20,13,44,15.00
2016,10,20,13,45,15.00
2016,10,20,13,46,15.00
2016,10,20,13,47,15.00
2016,10,20,13,48,14.90
2016,10,20,13,49,14.80
2016,10,20,13,50,14.80
2016,10,20,13,51,14.80
2016,10,20,13,52,14.80
2016,10,20,13,53,14.80
2016,10,20,13,54,14.80
2016,10,20,13,55,14.70
2016,10,20,13,56,14.60
2016,10,20,13,57,14.60
2016,10,20,13,58,14.60
2016,10,20,13,59,14.60
2016,10,20,14,00,14.50
2016,10,20,14,01,14.50
2016,10,20,14,02,14.40
2016,10,20,14,03,14.20
2016,10,20,14,04,14.10
2016,10,20,14,05,14.00
2016,10,20,14,06,14.00
2016,10,20,14,07,13.90
2016,10,20,14,08,13.80
2016,10,20,14,09,13.80
2016,10,20,14,10,13.80
2016,10,20,14,11,13.80
2016,10,20,14,12,13.80
2016,10,20,14,13,13.80
2016,10,20,14,14,13.80
2016,10,20,14,15,13.80
2016,10,20,14,16,13.80
2016,10,20,14,17,13.70
2016,10,20,14,18,13.70
2016,10,20,14,19,13.80
2016,10,20,14,20,13.80
2016,10,20,14,21,13.90
2016,10,20,14,22,13.90
2016,10,20,14,23,14.00
2016,10,20,14,24,14.10
2016,10,20,14,25,14.10
2016,10,20,14,26,14.20
2016,10,20,14,27,14.20
2016,10,20,14,28,14.30
2016,10,20,14,29,14.30
2016,10,20,14,30,14.30
2016,10,20,14,31,14.30
2016,10,20,14,32,14.20
2016,10,20,14,33,14.20
2016,10,20,14,34,14.20
2016,10,20,14,35,14.20
2016,10,20,14,36,14.20
2016,10,20,14,37,14.20
2016,10,20,14,38,14.20
2016,10,20,14,39,14.10
2016,10,20,14,40,14.10
2016,10,20,14,41,14.10
2016,10,20,14,42,14.00
2016,10,20,14,43,14.00
2016,10,20,14,44,14.00
2016,10,20,14,45,14.00
2016,10,20,14,46,14.00
2016,10,20,14,47,14.00
2016,10,20,14,48,13.90
2016,10,20,14,49,13.90
2016,10,20,14,50,13.90
2016,10,20,14,51,13.90
2016,10,20,14,52,13.90
2016,10,20,14,53,13.90
2016,10,20,14,54,13.90
2016,10,20,14,55,13.90
2016,10,20,14,56,13.90
2016,10,20,14,57,13.90
2016,10,20,14,58,13.90
2016,10,20,14,59,13.90
2016,10,20,15,00,13.90
2016,10,20,15,01,13.90
2016,10,20,15,02,13.90
2016,10,20,15,03,13.90
2016,10,20,15,04,13.90
2016,10,20,15,05,13.90
2016,10,20,15,06,13.90
2016,10,20,15,07,13.90
2016,10,20,15,08,13.90
2016,10,20,15,09,13.90
2016,10,20,15,10,13.90
2016,10,20,15,11,13.80
2016,10,20,15,12,13.80
2016,10,20,15,13,13.80
2016,10,20,15,14,13.80
2016,10,20,15,15,13.80
2016,10,20,15,16,13.80
2016,10,20,15,17,13.80
2016,10,20,15,18,13.80
2016,10,20,15,19,13.80
2016,10,20,15,20,13.80
2016,10,20,15,21,13.90
2016,10,20,15,22,13.90
2016,10,20,15,23,13.90
2016,10,20,15,24,13.90
2016,10,20,15,25,13.90
2016,10,20,15,26,13.90
2016,10,20,15,27,13.90
2016,10,20,15,28,13.90
2016,10,20,15,29,13.90
2016,10,20,15,30,13.90
2016,10,20,15,31,13.90
2016,10,20,15,32,14.00
2016,10,20,15,33,14.00
2016,10,20,15,34,14.00
2016,10,20,15,35,14.00
2016,10,20,15,36,14.10
2016,10,20,15,37,14.10
2016,10,20,15,38,14.20
2016,10,20,15,39,14.20
2016,10,20,15,40,14.20
2016,10,20,15,41,14.20
2016,10,20,15,42,14.20
2016,10,20,15,43,14.20
2016,10,20,15,44,14.20
2016,10,20,15,45,14.20
2016,10,20,15,46,14.20
2016,10,20,15,47,14.20
2016,10,20,15,48,14.20
2016,10,20,15,49,14.20
2016,10,20,15,50,14.20
2016,10,20,15,51,14.20
2016,10,20,15,52,14.20
2016,10,20,15,53,14.20
2016,10,20,15,54,14.20
2016,10,20,15,55,14.20
2016,10,20,15,56,14.30
2016,10,20,15,57,14.30
2016,10,20,15,58,14.30
2016,10,20,15,59,14.30
2016,10,20,16,00,14.40
2016,10,20,16,01,14.40
2016,10,20,16,02,14.40
2016,10,20,16,03,14.40
2016,10,20,16,04,14.40
2016,10,20,16,05,14.40
2016,10,20,16,06,14.40
2016,10,20,16,07,14.50
2016,10,20,16,08,14.50
2016,10,20,16,09,14.50
2016,10,20,16,10,14.50
2016,10,20,16,11,14.50
2016,10,20,16,12,14.50
2016,10,20,16,13,14.60
2016,10,20,16,14,14.60
2016,10,20,16,15,14.60
2016,10,20,16,16,14.60
2016,10,20,16,17,14.60
2016,10,20,16,18,14.60
2016,10,20,16,19,14.60
2016,10,20,16,20,14.60
2016,10,20,16,21,14.60
2016,10,20,16,22,14.60
2016,10,20,16,23,14.60
2016,10,20,16,24,14.60
2016,10,20,16,25,14.60
2016,10,20,16,26,14.60
2016,10,20,16,27,14.60
2016,10,20,16,28,14.60
2016,10,20,16,29,14.50
2016,10,20,16,30,14.50
2016,10,20,16,31,14.50
2016,10,20,16,32,14.50
2016,10,20,16,33,14.50
2016,10,20,16,34,14.50
2016,10,20,16,35,14.40
2016,10,20,16,36,14.40
2016,10,20,16,37,14.40
2016,10,20,16,38,14.40
2016,10,20,16,39,14.40
2016,10,20,16,40,14.40
2016,10,20,16,41,14.40
2016,10,20,16,42,14.40
2016,10,20,16,43,14.30
2016,10,20,16,44,14.30
2016,10,20,16,45,14.30
2016,10,20,16,46,14.30
2016,10,20,16,47,14.30
2016,10,20,16,48,14.30
2016,10,20,16,49,14.30
2016,10,20,16,50,14.30
2016,10,20,16,51,14.30
2016,10,20,16,52,14.30
2016,10,20,16,53,14.30
2016,10,20,16,54,14.30
2016,10,20,16,55,14.30
2016,10,20,16,56,14.30
2016,10,20,16,57,14.30
2016,10,20,16,58,14.30
2016,10,20,16,59,14.30
2016,10,20,17,00,14.20
2016,10,20,17,01,14.20
2016,10,20,17,02,14.20
2016,10,20,17,03,14.20
2016,10,20,17,04,14.20
2016,10,20,17,05,14.20
2016,10,20,17,06,14.20
2016,10,20,17,07,14.20
2016,10,20,17,08,14.20
2016,10,20,17,09,14.20
2016,10,20,17,10,14.20
2016,10,20,17,11,14.20
2016,10,20,17,12,14.20
2016,10,20,17,13,14.20
2016,10,20,17,14,14.20
2016,10,20,17,15,14.20
2016,10,20,17,16,14.20
2016,10,20,17,17,14.20
2016,10,20,17,18,14.20
2016,10,20,17,19,14.10
2016,10,20,17,20,14.10
2016,10,20,17,21,14.10
2016,10,20,17,22,14.10
2016,10,20,17,23,14.00
2016,10,20,17,24,14.00
2016,10,20,17,25,14.00
2016,10,20,17,26,14.00
2016,10,20,17,27,14.00
2016,10,20,17,28,14.00
2016,10,20,17,29,14.00
2016,10,20,17,30,14.00
2016,10,20,17,31,14.00
2016,10,20,17,32,14.00
2016,10,20,17,33,14.00
2016,10,20,17,34,14.00
2016,10,20,17,35,14.00
2016,10,20,17,36,14.00
2016,10,20,17,37,14.00
2016,10,20,17,38,14.00
2016,10,20,17,39,14.00
2016,10,20,17,40,13.90
2016,10,20,17,41,13.90
2016,10,20,17,42,13.90
2016,10,20,17,43,13.90
2016,10,20,17,44,13.90
2016,10,20,17,45,13.80
2016,10,20,17,46,13.80
2016,10,20,17,47,13.80
2016,10,20,17,48,13.80
2016,10,20,17,49,13.70
2016,10,20,17,50,13.70
2016,10,20,17,51,13.70
2016,10,20,17,52,13.70
2016,10,20,17,53,13.70
2016,10,20,17,54,13.70
2016,10,20,17,55,13.60
2016,10,20,17,56,13.60
2016,10,20,17,57,13.50
2016,10,20,17,58,13.50
2016,10,20,17,59,13.50
2016,10,20,18,00,13.40
2016,10,20,18,01,13.40
2016,10,20,18,02,13.40
2016,10,20,18,03,13.30
2016,10,20,18,04,13.30
2016,10,20,18,05,13.30
2016,10,20,18,06,13.30
2016,10,20,18,07,13.30
2016,10,20,18,08,13.30
2016,10,20,18,09,13.30
2016,10,20,18,10,13.30
2016,10,20,18,11,13.30
2016,10,20,18,12,13.30
2016,10,20,18,13,13.30
2016,10,20,18,14,13.30
